�N����,����,�~����,�C��,���x,�C��,����,���ϕ���,�ő�u�ԕ���,�ő厞����,���˗�,�I�_���x,�n�����x,�ő啗���N��,DTYPE
"16/06/10","00:10",0.0,20.1,84.8,1006.4,295.6,0.8,1.2,298.6,0.00,17.5,21.5,"00:01:20",1
"16/06/10","00:20",0.0,20.1,84.6,1006.2,286.0,0.6,1.0,283.8,0.00,17.5,21.6,"00:10:24",1
"16/06/10","00:30",0.0,20.1,84.8,1006.4,274.1,0.8,2.2,345.8,0.00,17.5,21.6,"00:21:36",1
"16/06/10","00:40",0.0,20.1,84.8,1006.4,282.7,0.7,1.2,332.5,0.00,17.5,21.6,"00:34:48",1
"16/06/10","00:50",0.0,20.0,84.7,1006.4,279.1,0.7,1.1,247.9,0.00,17.4,21.5,"00:41:36",1
"16/06/10","01:00",0.0,19.8,84.9,1006.7,284.2,0.8,1.1,254.9,0.00,17.2,21.6,"00:59:12",1
"16/06/10","01:10",0.0,19.6,85.3,1006.4,285.5,0.7,1.1,329.4,0.00,17.1,21.3,"01:04:00",1
"16/06/10","01:20",0.0,19.3,86.1,1006.4,307.5,0.8,1.2,322.5,0.00,17.0,21.2,"01:11:52",1
"16/06/10","01:30",0.0,19.0,86.8,1006.9,309.0,0.7,1.7,328.9,0.00,16.8,21.2,"01:20:24",1
"16/06/10","01:40",0.0,18.9,87.5,1006.4,315.9,0.7,1.9,350.0,0.00,16.8,21.2,"01:34:40",1
"16/06/10","01:50",0.0,18.7,88.3,1006.4,315.9,0.8,1.9,345.5,0.00,16.8,21.1,"01:48:24",1
"16/06/10","02:00",0.0,18.7,88.4,1006.7,331.2,1.2,2.0,356.3,0.00,16.8,21.2,"01:56:24",1
"16/06/10","02:10",0.0,18.5,88.5,1006.7,285.0,0.8,1.0,282.0,0.00,16.6,21.2,"02:00:08",1
"16/06/10","02:20",0.0,18.2,89.2,1006.4,301.7,0.8,1.6,319.4,0.00,16.4,20.9,"02:14:32",1
"16/06/10","02:30",0.0,18.2,89.7,1006.7,308.8,1.0,1.8,313.4,0.00,16.5,21.0,"02:23:04",1
"16/06/10","02:40",0.0,18.2,90.6,1006.9,306.8,1.2,2.0,316.2,0.00,16.7,21.0,"02:37:52",1
"16/06/10","02:50",0.0,18.7,90.1,1006.4,321.6,1.6,2.4,333.8,0.00,17.1,20.8,"02:40:56",1
"16/06/10","03:00",0.0,18.9,89.0,1006.7,322.6,1.6,2.5,319.9,0.00,17.1,20.6,"02:54:00",1
"16/06/10","03:10",0.0,19.0,88.1,1006.7,326.2,1.7,2.7,335.1,0.00,17.0,20.9,"03:03:44",1
"16/06/10","03:20",0.0,18.9,87.8,1006.9,323.7,1.6,2.4,350.7,0.00,16.9,20.9,"03:18:32",1
"16/06/10","03:30",0.0,18.9,87.9,1007.1,317.0,1.5,2.4,337.7,0.00,16.9,20.8,"03:20:56",1
"16/06/10","03:40",0.0,18.9,87.7,1006.7,324.9,1.5,2.5,355.3,0.00,16.9,20.4,"03:30:02",1
"16/06/10","03:50",0.0,19.0,87.3,1007.1,347.6,1.5,2.6,352.6,0.00,16.9,20.6,"03:40:48",1
"16/06/10","04:00",0.0,18.8,87.1,1007.4,319.3,1.0,1.9,341.1,0.00,16.6,20.5,"03:53:52",1
"16/06/10","04:10",0.0,18.5,87.8,1007.4,309.5,1.0,2.0,333.0,0.00,16.5,20.6,"04:05:36",1
"16/06/10","04:20",0.0,18.2,89.1,1007.6,310.6,0.8,1.6,312.8,0.00,16.4,20.3,"04:15:20",1
"16/06/10","04:30",0.0,18.3,89.8,1007.8,320.8,1.3,2.1,337.2,0.00,16.6,20.2,"04:22:00",1
"16/06/10","04:40",0.0,18.4,89.9,1007.6,321.0,1.2,2.2,329.4,0.00,16.8,20.2,"04:38:08",1
"16/06/10","04:50",0.0,18.6,89.6,1007.8,336.7,1.3,2.2,321.6,0.00,16.9,20.3,"04:41:36",1
"16/06/10","05:00",0.0,18.4,89.1,1007.6,312.9,0.2,1.0,322.2,0.00,16.6,20.2,"04:54:32",1
"16/06/10","05:10",0.0,18.3,89.8,1007.8,278.5,0.6,1.1,250.2,0.00,16.6,20.3,"05:09:20",1
"16/06/10","05:20",0.0,18.3,89.9,1007.8,312.0,1.3,2.1,333.6,0.00,16.7,20.3,"05:14:00",1
"16/06/10","05:30",0.0,18.4,90.3,1007.8,313.7,0.3,1.0,316.2,0.00,16.8,20.2,"05:20:48",1
"16/06/10","05:40",0.0,18.5,90.7,1008.1,318.9,0.8,1.9,324.9,0.00,17.0,20.2,"05:36:00",1
"16/06/10","05:50",0.0,18.7,91.1,1008.1,327.7,0.7,1.9,346.3,0.02,17.3,20.2,"05:42:56",1
"16/06/10","06:00",0.0,19.5,89.8,1007.8,325.0,0.7,2.0,338.1,0.03,17.8,20.2,"05:59:36",1
"16/06/10","06:10",0.0,20.1,87.4,1008.3,339.3,1.3,2.4,341.2,0.04,18.0,20.2,"06:00:24",1
"16/06/10","06:20",0.0,20.9,84.7,1008.1,355.3,0.3,1.6,339.2,0.06,18.3,20.3,"06:10:24",1
"16/06/10","06:30",0.0,21.7,82.0,1008.6,109.8,0.3,1.1,129.7,0.08,18.5,20.6,"06:21:20",1
"16/06/10","06:40",0.0,22.1,79.5,1008.1,86.7,0.5,1.0,71.0,0.10,18.4,20.4,"06:33:04",1
"16/06/10","06:50",0.0,22.8,76.9,1007.8,115.6,0.2,0.9,118.4,0.13,18.6,20.4,"06:46:16",1
"16/06/10","07:00",0.0,23.2,74.1,1007.6,45.3,0.3,1.2,61.8,0.15,18.4,20.7,"06:57:44",1
"16/06/10","07:10",0.0,23.5,73.2,1007.8,158.4,0.5,1.2,135.3,0.17,18.5,20.8,"07:07:36",1
"16/06/10","07:20",0.0,23.5,71.5,1007.8,186.9,0.8,2.0,208.9,0.20,18.1,21.2,"07:13:52",1
"16/06/10","07:30",0.0,23.9,71.5,1007.6,183.0,0.8,1.8,229.4,0.22,18.5,21.2,"07:28:24",1
"16/06/10","07:40",0.0,24.3,67.4,1007.4,163.9,1.0,2.7,235.8,0.25,17.9,21.5,"07:32:56",1
"16/06/10","07:50",0.0,24.4,68.0,1007.6,138.7,1.1,2.9,183.4,0.27,18.2,21.6,"07:40:02",1
"16/06/10","08:00",0.0,24.6,67.7,1007.1,175.4,1.6,2.9,206.8,0.30,18.3,21.7,"07:51:28",1
"16/06/10","08:10",0.0,24.9,68.3,1006.9,177.1,1.6,3.3,199.7,0.32,18.7,22.0,"08:06:56",1
"16/06/10","08:20",0.0,24.8,65.4,1006.9,202.9,1.7,2.8,219.6,0.34,17.9,22.2,"08:17:12",1
"16/06/10","08:30",0.0,26.0,64.9,1006.7,163.6,0.6,1.7,222.2,0.37,18.9,22.5,"08:20:40",1
"16/06/10","08:40",0.0,26.1,64.2,1006.7,143.0,0.8,2.2,215.0,0.40,18.9,22.8,"08:35:12",1
"16/06/10","08:50",0.0,26.5,60.5,1007.1,117.5,0.8,3.3,228.7,0.43,18.3,22.8,"08:42:48",1
"16/06/10","09:00",0.0,26.7,62.7,1007.4,157.3,1.0,2.2,184.0,0.46,19.0,23.1,"08:59:20",1
"16/06/10","09:10",0.0,26.9,62.8,1007.8,143.5,1.1,2.5,218.6,0.48,19.3,23.7,"09:07:04",1
"16/06/10","09:20",0.0,26.5,59.9,1007.6,187.7,1.7,3.6,223.3,0.49,18.1,23.6,"09:19:20",1
"16/06/10","09:30",0.0,27.7,59.6,1007.6,154.4,1.2,2.7,183.5,0.55,19.2,24.3,"09:29:04",1
"16/06/10","09:40",0.0,27.6,58.5,1008.1,159.5,1.6,3.7,129.9,0.55,18.8,24.3,"09:36:32",1
"16/06/10","09:50",0.0,28.0,56.3,1008.1,118.8,1.1,2.4,138.3,0.65,18.5,24.7,"09:42:00",1
"16/06/10","10:00",0.0,27.6,55.4,1008.3,158.2,1.0,2.0,2.0,0.55,17.9,25.1,"09:59:20",1
"16/06/10","10:10",0.0,28.2,55.7,1008.3,21.7,1.0,2.6,36.6,0.48,18.5,25.1,"10:05:12",1
"16/06/10","10:20",0.0,27.6,57.9,1007.8,192.0,1.2,2.8,161.9,0.35,18.6,25.6,"10:19:44",1
"16/06/10","10:30",0.0,27.5,55.4,1007.8,145.0,1.1,2.5,17.7,0.35,17.8,25.4,"10:27:12",1
"16/06/10","10:40",0.0,26.8,59.9,1007.1,10.8,0.7,2.1,359.3,0.15,18.4,25.6,"10:37:04",1
"16/06/10","10:50",0.0,28.4,54.6,1007.1,227.5,0.6,1.9,227.1,0.63,18.4,26.0,"10:44:40",1
"16/06/10","11:00",0.0,28.1,54.9,1007.6,209.8,1.3,2.8,225.3,0.63,18.2,26.0,"10:55:52",1
"16/06/10","11:10",0.0,29.0,52.4,1007.6,171.1,1.0,2.4,176.6,0.62,18.3,26.4,"11:00:48",1
"16/06/10","11:20",0.0,28.5,53.5,1007.4,181.0,1.7,4.1,214.8,0.61,18.2,26.6,"11:15:44",1
"16/06/10","11:30",0.0,28.9,53.7,1007.1,203.4,1.7,4.1,227.0,0.62,18.6,26.7,"11:27:04",1
"16/06/10","11:40",0.0,29.0,52.3,1007.1,206.0,1.5,4.3,223.2,0.62,18.3,27.2,"11:38:32",1
"16/06/10","11:50",0.0,29.8,51.3,1006.9,152.1,1.1,2.2,195.6,0.62,18.7,27.2,"11:48:32",1
"16/06/10","12:00",0.0,29.7,52.5,1007.1,185.8,1.7,3.7,217.6,0.62,19.0,27.7,"11:51:20",1
"16/06/10","12:10",0.0,29.9,49.2,1007.1,185.3,1.6,3.5,198.8,0.63,18.1,27.7,"12:09:44",1
"16/06/10","12:20",0.0,30.2,48.4,1006.9,212.9,1.6,4.4,224.7,0.59,18.2,28.0,"12:10:08",1
"16/06/10","12:30",0.0,29.6,53.4,1006.9,338.6,0.6,2.8,13.1,0.30,19.2,28.1,"12:28:32",1
"16/06/10","12:40",0.0,31.2,48.9,1006.9,92.0,0.7,2.1,12.9,0.62,19.2,28.2,"12:32:48",1
"16/06/10","12:50",0.0,31.2,48.5,1007.1,183.8,0.6,2.4,232.9,0.62,19.1,27.8,"12:46:16",1
"16/06/10","13:00",0.0,31.0,51.4,1007.1,186.0,1.0,2.0,222.8,0.62,19.8,27.9,"12:58:56",1
"16/06/10","13:10",0.0,31.2,48.3,1007.6,297.5,0.6,1.9,226.6,0.60,19.0,27.9,"13:05:44",1
"16/06/10","13:20",0.0,31.1,45.3,1007.4,231.3,0.8,3.3,229.1,0.59,17.9,27.6,"13:15:44",1
"16/06/10","13:30",0.0,31.6,49.1,1007.4,221.4,0.5,2.6,194.8,0.58,19.7,27.3,"13:21:12",1
"16/06/10","13:40",0.0,32.1,49.5,1006.9,357.6,0.7,2.2,357.1,0.57,20.2,27.4,"13:32:32",1
"16/06/10","13:50",0.0,32.2,43.1,1006.9,303.6,0.6,2.4,354.4,0.56,18.1,27.5,"13:40:02",1
"16/06/10","14:00",0.0,32.0,46.5,1006.7,327.6,1.0,2.6,222.9,0.55,19.1,27.4,"13:55:36",1
"16/06/10","14:10",0.0,32.3,48.8,1006.7,212.0,1.0,3.2,225.1,0.53,20.2,27.7,"14:06:08",1
"16/06/10","14:20",0.0,31.5,45.6,1006.7,213.3,1.5,3.3,228.1,0.52,18.4,27.7,"14:13:12",1
"16/06/10","14:30",0.0,31.5,47.3,1006.4,208.5,1.7,5.0,221.4,0.51,19.0,27.7,"14:25:44",1
"16/06/10","14:40",0.0,31.7,46.4,1006.4,212.4,1.1,3.4,223.8,0.49,18.8,27.9,"14:32:56",1
"16/06/10","14:50",0.0,32.6,44.0,1006.4,32.6,0.5,1.6,13.0,0.47,18.8,27.7,"14:40:40",1
"16/06/10","15:00",0.0,32.7,44.7,1006.2,317.2,0.5,2.4,228.1,0.46,19.1,27.7,"14:50:16",1
"16/06/10","15:10",0.0,32.4,43.3,1006.7,324.0,0.6,2.0,218.9,0.44,18.4,27.9,"15:02:24",1
"16/06/10","15:20",0.0,32.1,43.0,1006.7,336.0,0.8,3.1,3.4,0.42,18.0,28.0,"15:19:36",1
"16/06/10","15:30",0.0,32.4,44.3,1006.7,343.4,0.8,3.1,42.4,0.40,18.7,27.8,"15:21:04",1
"16/06/10","15:40",0.0,32.2,43.9,1006.7,291.3,0.5,1.4,350.5,0.39,18.4,27.9,"15:39:20",1
"16/06/10","15:50",0.0,32.8,43.9,1006.4,281.0,0.5,1.8,345.8,0.37,18.9,27.7,"15:48:08",1
"16/06/10","16:00",0.0,32.3,43.7,1006.7,321.2,0.8,2.0,220.7,0.32,18.4,27.7,"15:52:48",1
"16/06/10","16:10",0.0,31.9,43.3,1006.2,66.2,0.6,1.8,65.7,0.34,17.9,27.9,"16:04:56",1
"16/06/10","16:20",0.0,31.3,43.9,1006.2,119.1,1.1,1.9,104.5,0.33,17.6,27.9,"16:11:36",1
"16/06/10","16:30",0.0,31.3,45.4,1006.4,56.3,1.1,2.7,190.4,0.29,18.1,27.9,"16:28:16",1
"16/06/10","16:40",0.0,31.0,44.6,1006.2,116.9,1.2,3.4,99.5,0.28,17.6,27.9,"16:39:20",1
"16/06/10","16:50",0.0,30.9,45.3,1006.2,133.5,1.1,2.2,122.8,0.14,17.7,27.5,"16:40:32",1
"16/06/10","17:00",0.0,30.4,46.2,1006.0,120.3,1.2,2.7,97.7,0.05,17.6,27.7,"16:52:48",1
"16/06/10","17:10",0.0,30.1,47.9,1005.7,117.6,1.0,2.0,155.4,0.04,17.9,27.5,"17:08:40",1
"16/06/10","17:20",0.0,29.8,46.9,1005.5,104.7,1.0,2.0,103.8,0.03,17.3,27.4,"17:14:48",1
"16/06/10","17:30",0.0,29.4,49.1,1005.0,106.9,0.8,1.9,124.0,0.02,17.6,27.2,"17:22:16",1
"16/06/10","17:40",0.0,29.2,48.3,1005.0,102.9,0.8,1.8,84.7,0.01,17.2,27.3,"17:37:12",1
"16/06/10","17:50",0.0,28.9,50.4,1005.0,104.6,0.7,1.8,100.3,0.01,17.6,27.0,"17:44:00",1
"16/06/10","18:00",0.0,28.7,52.7,1004.8,70.1,0.6,1.4,84.3,0.01,18.1,26.7,"17:58:48",1
"16/06/10","18:10",0.0,28.3,54.6,1004.5,18.0,0.6,2.1,21.9,0.01,18.3,26.4,"18:04:48",1
"16/06/10","18:20",0.0,28.1,57.1,1005.2,345.1,0.5,1.7,327.5,0.01,18.9,26.4,"18:18:16",1
"16/06/10","18:30",0.0,27.6,58.2,1005.0,328.8,0.8,1.7,338.2,0.00,18.7,26.3,"18:20:56",1
"16/06/10","18:40",0.0,27.2,61.5,1005.2,318.2,0.5,1.7,339.0,0.00,19.2,26.2,"18:30:56",1
"16/06/10","18:50",0.0,26.8,62.5,1005.7,333.0,0.5,1.2,336.0,0.00,19.1,26.0,"18:45:28",1
"16/06/10","19:00",0.0,26.6,59.8,1006.2,27.4,0.6,2.1,352.5,0.00,18.2,26.0,"18:52:00",1
"16/06/10","19:10",0.0,26.5,59.2,1006.4,57.9,0.5,1.3,79.3,0.00,17.9,25.8,"19:05:12",1
"16/06/10","19:20",0.0,26.3,59.2,1006.7,21.4,0.5,1.6,40.1,0.00,17.7,25.7,"19:16:48",1
"16/06/10","19:30",0.0,26.0,60.0,1006.4,19.1,0.3,1.0,75.2,0.00,17.7,25.5,"19:25:12",1
"16/06/10","19:40",0.0,25.5,63.3,1007.1,301.2,0.3,1.3,133.8,0.00,18.1,25.3,"19:31:44",1
"16/06/10","19:50",0.0,25.1,67.2,1007.4,341.5,0.8,1.6,342.9,0.00,18.6,25.1,"19:46:08",1
"16/06/10","20:00",0.0,24.4,69.3,1007.4,307.4,0.7,1.7,346.3,0.00,18.5,25.2,"19:53:12",1
"16/06/10","20:10",0.0,23.8,71.3,1007.8,297.2,0.8,1.4,338.3,0.00,18.3,25.0,"20:09:52",1
"16/06/10","20:20",0.0,23.4,72.9,1007.8,306.1,0.7,1.4,328.8,0.00,18.3,24.9,"20:10:24",1
"16/06/10","20:30",0.0,23.1,74.1,1008.1,304.8,1.0,1.4,322.6,0.00,18.3,24.8,"20:25:44",1
"16/06/10","20:40",0.0,22.9,74.8,1008.3,292.7,0.7,1.1,303.7,0.00,18.2,24.7,"20:30:08",1
"16/06/10","20:50",0.0,22.6,76.5,1008.6,282.7,0.8,1.6,319.3,0.00,18.3,24.7,"20:42:48",1
"16/06/10","21:00",0.0,22.5,76.8,1008.6,301.8,1.0,1.6,330.3,0.00,18.3,24.4,"20:56:08",1
"16/06/10","21:10",0.0,22.4,77.2,1008.6,291.5,0.8,1.2,324.3,0.00,18.3,24.2,"21:00:08",1
"16/06/10","21:20",0.0,22.3,77.5,1008.8,294.6,1.1,1.4,292.2,0.00,18.2,24.2,"21:18:08",1
"16/06/10","21:30",0.0,22.3,78.1,1008.8,288.0,1.1,1.3,292.9,0.00,18.3,24.2,"21:21:44",1
"16/06/10","21:40",0.0,22.3,79.1,1008.8,287.2,1.0,1.4,251.0,0.00,18.5,24.1,"21:36:48",1
"16/06/10","21:50",0.0,22.2,78.8,1008.8,297.9,1.1,1.6,307.7,0.00,18.4,24.3,"21:46:24",1
"16/06/10","22:00",0.0,22.1,79.4,1009.3,322.0,1.3,1.6,321.6,0.00,18.4,23.9,"21:51:04",1
"16/06/10","22:10",0.0,22.0,80.1,1009.3,310.3,1.2,1.8,337.0,0.00,18.5,23.9,"22:08:28",1
"16/06/10","22:20",0.0,21.7,80.4,1009.3,307.9,1.1,1.3,317.6,0.00,18.2,23.8,"22:10:24",1
"16/06/10","22:30",0.0,21.5,81.2,1008.8,305.3,0.8,1.1,320.5,0.00,18.2,23.8,"22:22:40",1
"16/06/10","22:40",0.0,21.2,82.1,1009.3,289.9,0.7,1.0,306.6,0.00,18.1,23.7,"22:35:20",1
"16/06/10","22:50",0.0,20.9,83.1,1009.0,291.8,0.6,1.0,308.0,0.00,18.0,23.6,"22:46:24",1
"16/06/10","23:00",0.0,20.8,83.7,1009.3,301.6,0.8,1.1,320.6,0.00,18.0,23.3,"22:51:36",1
"16/06/10","23:10",0.0,20.6,85.2,1009.3,298.5,0.7,1.1,326.8,0.00,18.1,23.3,"23:09:44",1
"16/06/10","23:20",0.0,20.4,85.8,1009.3,301.0,0.7,1.0,307.7,0.00,18.0,23.3,"23:12:32",1
"16/06/10","23:30",0.0,20.3,86.1,1009.0,310.1,0.8,1.2,335.1,0.00,17.9,23.2,"23:24:16",1
"16/06/10","23:40",0.0,20.3,86.2,1009.0,302.6,0.7,1.3,325.1,0.00,18.0,23.1,"23:33:12",1
"16/06/10","23:50",0.0,20.2,86.6,1009.5,300.0,0.8,1.2,310.1,0.00,17.9,23.0,"23:40:56",1
"16/06/10","24:00",0.0,20.1,86.9,1009.3,292.8,0.7,1.1,315.1,0.00,17.9,23.0,"23:55:44",1
